Regional Weather Roundup
Issued by NWS

Home | Current Version | Previous Version | Text Only | Print | Product List | Glossary Off
Versions: 1 2 3 4 5 6 7 8 9 10 11 12 13 14 15 16 17 18 19 20 21 22 23 24 25 26 27 28 29 30 31 32 33 34 35 36 37 38 39 40 41 42 43 44 45 46 47 48 49 50

000
ASUS44 KMEG 050700
RWRTN
TENNESSEE HOURLY STATE WEATHER ROUNDUP
NATIONAL WEATHER SERVICE MEMPHIS TN
200 AM CDT SUN JUL 05 2015

TNZ002-004-019-021-049-052-054-088>092-050800-
WEST TENNESSEE

CITY           SKY/WX    TMP DP  RH WIND       PRES   REMARKS
MEMPHIS INTL   MOCLDY    72  69  90 SW5       30.04S
NWS MEMPHIS      N/A     70 N/A N/A MISG        N/A
JACKSON        FAIR      69  67  93 CALM      30.04F
DYERSBURG        N/A    N/A N/A N/A MISG        N/A
PARIS          CLOUDY    70  70 100 W3        30.04S
LEXINGTON      MOCLDY    68  66  94 SW7       30.04R
$$

TNZ008-025-027-028-033-062-065-066-050800-
NORTH MIDDLE TENNESSEE

CITY           SKY/WX    TMP DP  RH WIND       PRES   REMARKS
NASHVILLE      LGT RAIN  69  69 100 W5        30.02S FOG
CLARKSVILLE    FAIR      71  69  93 NW8       30.01F
COOKEVILLE       N/A     68  68 100 NE6G148   30.03F
CROSSVILLE     LGT RAIN  68  65  90 S3        30.07F
$$

TNZ061-075-076-078-094-096-097-050800-
SOUTH MIDDLE TENNESSEE

CITY           SKY/WX    TMP DP  RH WIND       PRES   REMARKS
FAYETTEVILLE   CLOUDY    66  64  94 W10       30.05S
TULLAHOMA      CLOUDY    68  66  94 CALM      30.04S
WINCHESTER     CLOUDY    68  66  94 W6        30.04R
SHELBYVILLE    CLOUDY    72  70  94 SW5         N/A
$$

TNZ017-018-042-046-047-050800-
NORTHEAST TENNESSEE

CITY           SKY/WX    TMP DP  RH WIND       PRES   REMARKS
TRI CITIES     MOCLDY    69  68  96 CALM      30.10S FOG
ELIZABETHTON   SUNNY     66  66 100 CALM      30.10F
$$

TNZ012-013-036-069-073-074-050800-
CENTRAL EAST TENNESSEE

CITY           SKY/WX    TMP DP  RH WIND       PRES   REMARKS
KNOXVILLE      LGT RAIN  70  67  90 CALM      30.05
OAK RIDGE      RAIN      71  69  93 CALM      30.07R FOG
GATLINBURG     CLOUDY    68  66  94 CALM      30.06F
$$

TNZ083-085-099-050800-
SOUTHEAST TENNESSEE

CITY           SKY/WX    TMP DP  RH WIND       PRES   REMARKS
CHATTANOOGA    CLOUDY    71  68  90 S10       30.03S
$$

SKY/WX REPORTED AS FAIR MEANS FEW OR NO CLOUDS BELOW
12 THOUSAND FEET.




USA.gov is the U.S. government's official web portal to all federal, state and local government web resources and services.